Location: Lecco
(45.8566°N, 9.3977°E)
Time: 04:52:07
(UTC+02:00)

Transit 4A - Pass Details

Date: 14 August 2020
Orbit: 863 x 982 km, 66.8° (Epoch: 23 September)

Event Time Altitude Azimuth Distance (km) Brightness Sun altitude
Rises 11:35:56 0° 256° (WSW) 3,519 10.7 50.6°
Reaches altitude 10° 11:38:54 10° 270° (W) 2,601 10.1 51.0°
Maximum altitude 11:43:46 25° 323° (NW) 1,806 9.3 51.6°
Drops below altitude 10° 11:48:47 10° 17° (NNE) 2,678 10.2 52.2°
Sets 11:51:54 0° 31° (NNE) 3,646 10.9 52.5°
